DW3560 Weather Reports


time (UTC)temp
C
wind
direction
speed
KPH
gust
KPH
rain 1hr
cm
rain 24hr
cm
rain mn
cm
humidity
%
barometer
mb
20260503222503 15 248 1.6 9.7 0.00 0.00 0.00 73 1012.6
20260503222003 15 266 3.2 8.0 0.00 0.00 0.00 72 1012.6
20260503221503 15 294 1.6 8.0 0.00 0.00 0.00 72 1012.6
20260503221003 15 268 1.6 8.0 0.00 0.00 0.00 71 1012.7
20260503220503 15 243 3.2 8.0 0.00 0.00 0.00 70 1012.7
20260503220003 16 264 3.2 9.7 0.00 0.00 0.00 70 1012.7
20260503215503 16 262 3.2 9.7 0.00 0.00 0.00 71 1012.7
20260503215003 16 246 3.2 12.9 0.00 0.00 0.00 72 1012.7
20260503214503 15 243 3.2 12.9 0.00 0.00 0.00 71 1012.7
20260503214003 15 239 3.2 8.0 0.00 0.00 0.00 72 1012.7
20260503213524 15 263 1.6 6.4 0.00 0.00 0.00 73 1012.7
20260503213024 15 353 1.6 6.4 0.00 0.00 0.00 74 1012.7
20260503212524 15 250 1.6 8.0 0.00 0.00 0.00 74 1012.7
20260503212003 15 227 1.6 8.0 0.00 0.00 0.00 73 1012.7
20260503211524 15 246 1.6 8.0 0.00 0.00 0.00 73 1012.7
20260503211003 15 262 1.6 8.0 0.00 0.00 0.00 73 1012.7
20260503210503 15 263 1.6 6.4 0.00 0.00 0.00 73 1012.7
20260503210024 15 258 1.6 11.3 0.00 0.00 0.00 72 1012.7
20260503205503 15 230 1.6 11.3 0.00 0.00 0.00 72 1012.7
20260503205003 15 226 3.2 8.0 0.00 0.00 0.00 72 1012.7
20260503204503 15 238 3.2 11.3 0.00 0.00 0.00 72 1012.7
20260503204003 15 244 4.8 12.9 0.00 0.00 0.00 72 1012.7
20260503203503 15 240 4.8 12.9 0.00 0.00 0.00 70 1012.7
20260503203003 16 231 4.8 12.9 0.00 0.00 0.00 70 1012.7
20260503202503 16 228 3.2 12.9 0.00 0.00 0.00 70 1012.7
20260503202003 16 241 3.2 14.5 0.00 0.00 0.00 71 1012.7
20260503201503 15 242 3.2 14.5 0.00 0.00 0.00 73 1012.7
20260503201003 15 228 3.2 9.7 0.00 0.00 0.00 73 1010.9
20260503200503 15 237 3.2 11.3 0.00 0.00 0.00 74 1010.9
20260503200003 15 234 3.2 11.3 0.00 0.00 0.00 74 1010.9
20260503195503 15 232 4.8 11.3 0.00 0.00 0.00 73 1010.9
20260503195024 15 231 3.2 11.3 0.00 0.00 0.00 75 1010.9
20260503194503 14 219 3.2 9.7 0.00 0.00 0.00 74 1010.9
20260503194003 14 220 3.2 14.5 0.00 0.00 0.00 74 1010.9
20260503193503 14 226 3.2 14.5 0.00 0.00 0.00 73 1010.9
20260503193024 15 221 3.2 11.3 0.00 0.00 0.00 74 1010.9
20260503192503 14 222 4.8 12.9 0.00 0.00 0.00 73 1010.9
20260503192024 15 232 3.2 12.9 0.00 0.00 0.00 74 1010.9
20260503191503 15 247 3.2 12.9 0.00 0.00 0.00 76 1010.9
20260503191003 14 243 3.2 8.0 0.00 0.00 0.00 77 1010.9
20260503190503 14 223 3.2 8.0 0.00 0.00 0.00 79 1010.9
20260503190003 14 231 1.6 11.3 0.00 0.00 0.00 81 1010.9
20260503185503 13 237 1.6 11.3 0.00 0.00 0.00 81 1010.9
20260503185003 13 233 1.6 8.0 0.00 0.00 0.00 82 1010.9
20260503184524 13 246 1.6 6.4 0.00 0.00 0.00 83 1010.9
20260503184003 13 237 1.6 8.0 0.00 0.00 0.00 82 1010.9
20260503183503 13 233 1.6 8.0 0.00 0.00 0.00 83 1010.9
20260503183024 13 227 1.6 8.0 0.00 0.00 0.00 82 1010.9
20260503182503 13 215 3.2 9.7 0.00 0.00 0.00 83 1010.9
20260503182003 13 228 3.2 9.7 0.00 0.00 0.00 83 1010.9
20260503181504 13 245 1.6 6.4 0.00 0.00 0.00 83 1010.9
20260503181003 12 238 1.6 9.7 0.00 0.00 0.00 83 1010.9
20260503180503 12 238 3.2 9.7 0.00 0.00 0.00 83 1010.9
20260503180004 12 243 3.2 9.7 0.00 0.00 0.00 83 1010.9
20260503175503 12 244 3.2 17.7 0.00 0.00 0.00 83 1010.9
20260503175003 12 243 3.2 17.7 0.00 0.00 0.00 84 1010.9
20260503174524 12 231 3.2 17.7 0.00 0.00 0.00 85 1010.9
20260503174024 12 232 3.2 8.0 0.00 0.00 0.00 85 1010.9
20260503173524 12 241 3.2 9.7 0.00 0.00 0.00 86 1010.9
20260503173003 12 236 3.2 11.3 0.00 0.00 0.00 87 1010.9
20260503172503 12 227 1.6 11.3 0.00 0.00 0.00 88 1010.9
20260503172003 12 228 1.6 6.4 0.00 0.00 0.00 88 1010.9
20260503171503 12 225 1.6 8.0 0.00 0.00 0.00 89 1010.9
20260503171003 12 211 1.6 8.0 0.00 0.00 0.00 89 1010.9
20260503170503 12 222 1.6 12.9 0.00 0.00 0.00 89 1010.9
20260503151003 11 198 0.0 6.4 0.00 0.00 0.00 90 1010.9
20260503150503 11 189 0.0 6.4 0.00 0.00 0.00 90 1010.9
20260503131003 10 234 0.0 4.8 0.00 0.00 0.00 89 1010.9
20260503130503 10 236 0.0 3.2 0.00 0.00 0.00 89 1010.9
20260503110502 10 237 1.6 11.3 0.00 0.00 0.00 88 1010.9
20260503081523 10 247 0.0 8.0 0.00 0.00 0.00 89 1013.2
20260503081023 10 249 0.0 3.2 0.00 0.00 0.00 88 1013.2
20260503080523 10 244 0.0 3.2 0.00 0.00 0.00 88 1013.2
20260503072502 10 249 0.0 4.8 0.00 0.00 0.00 88 1013.2
20260503072003 10 246 0.0 6.4 0.00 0.00 0.00 88 1013.2
20260503071503 10 259 0.0 6.4 0.00 0.00 0.00 88 1013.2
20260503071002 10 285 0.0 3.2 0.00 0.00 0.00 88 1013.2
20260503070502 10 288 0.0 1.6 0.00 0.00 0.00 88 1013.2
20260503055023 11 242 0.0 6.4 0.00 0.00 0.00 88 1013.2
20260503054502 11 227 0.0 1.6 0.00 0.00 0.00 88 1013.2
20260503054002 11 299 0.0 3.2 0.00 0.00 0.00 88 1013.2
20260503053502 11 237 1.6 9.7 0.00 0.00 0.00 88 1013.2
20260503053024 11 232 1.6 9.7 0.00 0.00 0.00 87 1013.2
20260503052502 11 237 0.0 6.4 0.00 0.00 0.00 87 1013.2
20260503052002 11 215 0.0 4.8 0.00 0.00 0.00 87 1013.2
20260503051526 11 211 0.0 4.8 0.00 0.00 0.00 87 1013.2
20260503051002 11 183 0.0 6.4 0.00 0.00 0.00 88 1013.2
20260503050503 11 177 0.0 6.4 0.00 0.00 0.00 88 1013.2
20260503050006 11 199 0.0 4.8 0.00 0.00 0.00 88 1013.2
20260503045502 11 229 0.0 6.4 0.00 0.00 0.00 88 1013.2
20260503045002 11 235 0.0 6.4 0.00 0.00 0.00 87 1013.2
20260503044502 11 249 1.6 8.0 0.00 0.00 0.00 88 1013.2
20260503044002 11 259 0.0 8.0 0.00 0.00 0.00 88 1013.2
20260503043502 11 259 0.0 4.8 0.00 0.00 0.00 88 1013.2
20260503043002 11 304 0.0 4.8 0.00 0.00 0.00 87 1013.2
20260503042523 11 265 0.0 4.8 0.00 0.00 0.00 87 1013.2
20260503042023 11 252 0.0 3.2 0.00 0.00 0.00 87 1013.2
20260503041502 11 283 0.0 8.0 0.00 0.00 0.00 87 1013.2
20260503041002 11 276 0.0 8.0 0.00 0.00 0.00 87 1013.2
20260503040523 11 258 0.0 8.0 0.00 0.00 0.00 87 1013.2
20260503040002 11 273 0.0 8.0 0.00 0.00 0.00 87 1013.2
20260503035523 11 260 0.0 8.0 0.00 0.00 0.00 87 1013.2
20260503035002 11 290 0.0 4.8 0.00 0.00 0.00 87 1013.2
20260503034503 11 288 0.0 4.8 0.00 0.00 0.00 87 1013.2
20260503034002 11 275 0.0 3.2 0.00 0.00 0.00 87 1013.2
20260503033502 11 257 0.0 3.2 0.00 0.00 0.00 87 1013.2
20260503033002 11 208 0.0 3.2 0.00 0.00 0.00 86 1013.2
20260503032523 11 267 0.0 11.3 0.00 0.00 0.00 86 1013.2
20260503032002 11 274 1.6 11.3 0.00 0.00 0.00 86 1013.2
20260503031502 11 266 1.6 11.3 0.00 0.00 0.00 86 1013.2
20260503031002 11 290 1.6 11.3 0.00 0.00 0.00 85 1013.2
20260503030503 11 341 0.0 6.4 0.00 0.00 0.00 85 1013.2
20260503030024 11 349 0.0 6.4 0.00 0.00 0.00 85 1013.2
20260503025524 11 342 0.0 4.8 0.00 0.00 0.00 85 1013.2
20260503025002 11 343 0.0 6.4 0.00 0.00 0.00 85 1013.2
20260503024502 11 336 1.6 6.4 0.00 0.00 0.00 85 1013.2
20260503024002 11 328 1.6 6.4 0.00 0.00 0.00 84 1013.2
20260503023502 11 313 0.0 4.8 0.00 0.00 0.00 84 1013.2
20260503023002 11 296 0.0 4.8 0.00 0.00 0.00 84 1013.2
20260503022502 11 305 0.0 4.8 0.00 0.00 0.00 84 1013.2
20260503022002 11 310 0.0 4.8 0.00 0.00 0.00 83 1013.2
20260503021502 12 312 0.0 4.8 0.00 0.00 0.00 83 1013.2
20260503021002 12 323 0.0 4.8 0.00 0.00 0.00 83 1013.2
20260503020502 12 347 1.6 9.7 0.00 0.00 0.00 83 1013.2
20260503020002 12 356 1.6 9.7 0.00 0.00 0.00 83 1013.2
20260503015502 12 342 1.6 6.4 0.00 0.00 0.00 82 1013.2
20260503015002 12 317 1.6 8.0 0.00 0.00 0.00 82 1013.2
20260503014502 12 325 1.6 8.0 0.00 0.00 0.00 82 1013.2
20260503014002 12 10 1.6 6.4 0.00 0.00 0.00 82 1013.2
20260503013502 12 6 1.6 8.0 0.00 0.00 0.00 82 1013.2
20260503013002 12 308 1.6 8.0 0.00 0.00 0.00 81 1013.2
20260503012502 12 235 1.6 8.0 0.00 0.00 0.00 81 1013.2
20260503012002 12 260 1.6 8.0 0.00 0.00 0.00 81 1013.2
20260503011502 13 298 1.6 14.5 0.00 0.00 0.00 81 1013.2
20260503011002 13 322 1.6 14.5 0.00 0.00 0.00 81 1013.2
20260503010502 13 338 1.6 8.0 0.00 0.00 0.00 81 1013.2
20260503010002 13 327 1.6 8.0 0.00 0.00 0.00 80 1013.2
20260503005502 13 290 1.6 6.4 0.00 0.00 0.00 80 1013.2
20260503005002 13 323 1.6 9.7 0.00 0.00 0.00 81 1013.2
20260503004502 13 295 1.6 9.7 0.00 0.00 0.00 80 1013.2
20260503004023 13 309 1.6 12.9 0.00 0.00 0.00 80 1013.2
20260503003523 13 342 1.6 12.9 0.00 0.00 0.00 79 1013.2
20260503003023 13 330 1.6 6.4 0.00 0.00 0.00 79 1013.2
20260503002502 13 304 1.6 8.0 0.00 0.00 0.00 79 1013.2
20260503002002 13 331 1.6 8.0 0.00 0.00 0.00 79 1013.2
20260503001523 14 312 1.6 11.3 0.00 0.00 0.00 79 1013.2
20260503001002 14 312 3.2 16.1 0.00 0.00 0.00 79 1013.2
20260503000502 14 334 3.2 16.1 0.00 0.00 0.00 79 1013.2
20260503000023 14 342 1.6 9.7 0.00 0.00 0.00 80 1013.2
20260502235502 13 338 1.6 12.9 0.00 0.00 0.00 79 1013.2
20260502235002 13 331 1.6 12.9 0.00 0.00 0.00 78 1013.2
20260502234502 14 329 1.6 9.7 0.00 0.00 0.00 78 1013.2
20260502234002 14 338 3.2 11.3 0.00 0.00 0.00 78 1013.2
20260502233523 14 345 3.2 11.3 0.00 0.00 0.00 77 1013.2
20260502233002 15 348 1.6 11.3 0.00 0.00 0.00 77 1013.2
20260502232502 15 351 1.6 11.3 0.00 0.00 0.00 76 1013.2
20260502232023 15 345 1.6 4.8 0.00 0.00 0.00 75 1013.2
20260502231523 15 334 1.6 8.0 0.00 0.00 0.00 76 1013.2
20260502231002 15 324 1.6 8.0 0.00 0.00 0.00 76 1013.2
20260502230502 15 281 1.6 6.4 0.00 0.00 0.00 76 1013.2
20260502230023 15 296 1.6 6.4 0.00 0.00 0.00 76 1013.2
20260502225502 15 354 3.2 12.9 0.00 0.00 0.00 75 1013.2
20260502225002 15 341 3.2 12.9 0.00 0.00 0.00 75 1013.2
20260502224502 15 296 1.6 6.4 0.00 0.00 0.00 76 1013.2
20260502224002 15 241 1.6 9.7 0.00 0.00 0.00 77 1013.2
20260502223523 15 270 1.6 9.7 0.00 0.00 0.00 77 1013.2
20260502223002 15 326 1.6 8.0 0.00 0.00 0.00 78 1013.2